DL5XL-13 Weather Reports


Display with metric or nautical units.
time (UTC)temp
F
wind
direction
speed
MPH
gust
MPH
rain 1hr
in
rain 24hr
in
rain mn
in
humidity
%
barometer
mb
20191015073410 54 140 5.0 0.0 0.00 0.00 0.00 93 1005.0
20191015072152 54 140 5.0 0.0 0.00 0.00 0.00 93 1005.0
20191015070910 53 140 5.0 0.0 0.00 0.00 0.00 93 1005.0
20191015065702 53 110 4.0 0.0 0.00 0.00 0.00 93 1005.0
20191015064430 53 110 4.0 0.0 0.00 0.00 0.00 93 1005.0
20191015063112 53 120 3.0 0.0 0.00 0.00 0.00 93 1005.0
20191015061625 53 120 3.0 0.0 0.00 0.00 0.00 93 1005.0
20191015060310 53 130 4.0 0.0 0.00 0.00 0.00 93 1005.0
20191015054925 53 130 4.0 0.0 0.00 0.00 0.00 93 1005.0
20191015053712 53 130 4.0 0.0 0.00 0.00 0.00 93 1005.0
20191015052505 53 130 4.0 0.0 0.00 0.00 0.00 93 1005.0
20191015051030 53 130 4.0 0.0 0.00 0.00 0.00 93 1005.0
20191015045800 54 130 5.0 0.0 0.00 0.00 0.00 100 1005.0
20191015044320 54 130 5.0 0.0 0.00 0.00 0.00 100 1005.0
20191015043120 54 130 4.0 0.0 0.00 0.00 0.00 100 1005.0
20191015041830 54 130 4.0 0.0 0.00 0.00 0.00 100 1005.0
20191015040345 54 110 4.0 0.0 0.00 0.00 0.00 93 1005.0
20191015034933 54 110 4.0 0.0 0.00 0.00 0.00 93 1005.0
20191015033542 54 110 4.0 0.0 0.00 0.00 0.00 93 1005.0
20191015032310 55 130 3.0 0.0 0.00 0.00 0.00 93 1006.0
20191015030825 55 130 3.0 0.0 0.00 0.00 0.00 93 1006.0
20191015025500 54 130 9.0 0.0 0.00 0.00 0.00 93 1006.0
20191015024055 55 130 9.0 0.0 0.00 0.00 0.00 93 1006.0
20191015022720 55 120 5.0 0.0 0.00 0.00 0.00 93 1006.0
20191015021325 55 120 5.0 0.0 0.00 0.00 0.00 93 1006.0
20191015020010 55 120 4.0 0.0 0.00 0.00 0.00 93 1006.0
20191015014540 56 120 4.0 0.0 0.00 0.00 0.00 93 1006.0
20191015013312 56 130 4.0 0.0 0.00 0.00 0.00 93 1006.0
20191015012010 56 130 4.0 0.0 0.00 0.00 0.00 93 1006.0
20191015010732 56 130 4.0 0.0 0.00 0.00 0.00 93 1006.0
20191015005400 55 110 6.0 0.0 0.00 0.00 0.00 87 1007.0
20191015004152 56 100 9.0 0.0 0.00 0.00 0.00 87 1008.0
20191015002930 56 100 9.0 0.0 0.00 0.00 0.00 87 1008.0
20191015001705 56 100 9.0 0.0 0.00 0.00 0.00 87 1008.0
20191015000205 56 100 9.0 0.0 0.00 0.00 0.00 87 1008.0
20191014234850 56 100 10.0 0.0 0.00 0.00 0.00 87 1008.0
20191014233532 56 100 10.0 0.0 0.00 0.00 0.00 87 1008.0
20191014232145 56 100 10.0 0.0 0.00 0.00 0.00 87 1008.0
20191014230740 56 100 10.0 0.0 0.00 0.00 0.00 87 1008.0
20191014225245 56 100 10.0 0.0 0.00 0.00 0.00 87 1008.0
20191014223955 56 110 6.0 0.0 0.00 0.00 0.00 87 1008.0
20191014222552 57 100 8.0 0.0 0.00 0.00 0.00 87 1008.0
20191014221120 57 100 8.0 0.0 0.00 0.00 0.00 87 1008.0
20191014215715 56 100 8.0 0.0 0.00 0.00 0.00 87 1008.0
20191014214305 57 100 8.0 0.0 0.00 0.00 0.00 87 1008.0
20191014212815 57 110 9.0 0.0 0.00 0.00 0.00 87 1008.0
20191014211552 57 110 9.0 0.0 0.00 0.00 0.00 87 1008.0
20191014210355 57 100 9.0 0.0 0.00 0.00 0.00 87 1009.0
20191014205005 57 100 9.0 0.0 0.00 0.00 0.00 87 1009.0
20191014203730 57 100 9.0 0.0 0.00 0.00 0.00 87 1009.0
20191014202332 57 90 5.0 0.0 0.00 0.00 0.00 87 1009.0
20191014200900 57 90 5.0 0.0 0.00 0.00 0.00 87 1009.0
20191014195425 57 90 8.0 0.0 0.00 0.00 0.00 87 1009.0
20191014194005 58 90 8.0 0.0 0.00 0.00 0.00 87 1009.0
20191014192705 58 80 8.0 0.0 0.00 0.00 0.00 82 1010.0
20191014191210 58 80 8.0 0.0 0.00 0.00 0.00 82 1010.0
20191014185920 58 80 10.0 0.0 0.00 0.00 0.00 82 1010.0
20191014184605 58 80 10.0 0.0 0.00 0.00 0.00 82 1010.0
20191014183230 58 80 9.0 0.0 0.00 0.00 0.00 82 1010.0
20191014181745 58 80 9.0 0.0 0.00 0.00 0.00 82 1010.0
20191014180420 59 60 9.0 0.0 0.00 0.00 0.00 77 1010.0
20191014175015 59 60 9.0 0.0 0.00 0.00 0.00 77 1010.0
20191014173630 58 60 9.0 0.0 0.00 0.00 0.00 77 1010.0
20191014172342 59 60 9.0 0.0 0.00 0.00 0.00 77 1010.0
20191014171120 59 60 9.0 0.0 0.00 0.00 0.00 77 1010.0
20191014165640 59 70 9.0 0.0 0.00 0.00 0.00 72 1010.0
20191014164345 60 70 9.0 0.0 0.00 0.00 0.00 72 1010.0
20191014163100 60 70 9.0 0.0 0.00 0.00 0.00 72 1011.0
20191014161625 60 70 9.0 0.0 0.00 0.00 0.00 72 1011.0
20191014160215 61 60 10.0 0.0 0.00 0.00 0.00 87 1012.0
20191014154910 62 80 9.0 0.0 0.00 0.00 0.00 68 1011.0
20191014153615 62 80 9.0 0.0 0.00 0.00 0.00 68 1011.0
20191014152145 61 80 9.0 0.0 0.00 0.00 0.00 72 1011.0
20191014150944 62 80 9.0 0.0 0.00 0.00 0.00 72 1011.0
20191014145450 62 100 9.0 0.0 0.00 0.00 0.00 68 1012.0
20191014144126 62 100 9.0 0.0 0.00 0.00 0.00 68 1012.0
20191014142732 62 90 10.0 0.0 0.00 0.00 0.00 68 1012.0
20191014141238 62 90 10.0 0.0 0.00 0.00 0.00 68 1012.0
20191014135845 62 110 9.0 0.0 0.00 0.00 0.00 63 1012.0
20191014134605 62 110 9.0 0.0 0.00 0.00 0.00 63 1012.0
20191014133220 62 120 8.0 0.0 0.00 0.00 0.00 63 1013.0
20191014131755 62 120 8.0 0.0 0.00 0.00 0.00 63 1013.0
20191014130300 62 110 5.0 0.0 0.00 0.00 0.00 67 1013.0
20191014125000 61 110 5.0 0.0 0.00 0.00 0.00 67 1013.0
20191014123600 61 110 5.0 0.0 0.00 0.00 0.00 67 1013.0
20191014122240 61 120 6.0 0.0 0.00 0.00 0.00 67 1014.0
20191014121010 62 120 6.0 0.0 0.00 0.00 0.00 67 1014.0
20191014115530 63 0 3.0 0.0 0.00 0.00 0.00 63 1014.0
20191014114145 62 0 3.0 0.0 0.00 0.00 0.00 63 1014.0
20191014112940 62 0 3.0 0.0 0.00 0.00 0.00 67 1014.0
20191014111440 62 0 3.0 0.0 0.00 0.00 0.00 67 1014.0
20191014110230 62 0 2.0 0.0 0.00 0.00 0.00 67 1015.0
20191014104810 60 0 2.0 0.0 0.00 0.00 0.00 67 1015.0
20191014103450 59 320 3.0 0.0 0.00 0.00 0.00 72 1015.0
20191014102135 59 320 3.0 0.0 0.00 0.00 0.00 72 1015.0
20191014100815 59 320 3.0 0.0 0.00 0.00 0.00 72 1015.0
20191014095605 60 320 3.0 0.0 0.00 0.00 0.00 67 1015.0
20191014094325 59 320 3.0 0.0 0.00 0.00 0.00 67 1015.0
20191014092825 58 270 6.0 0.0 0.00 0.00 0.00 72 1015.0
20191014091550 58 270 6.0 0.0 0.00 0.00 0.00 72 1015.0
20191014090240 58 270 8.0 0.0 0.00 0.00 0.00 82 1015.0
20191014084806 58 270 8.0 0.0 0.00 0.00 0.00 82 1015.0
20191014083410 57 250 5.0 0.0 0.00 0.00 0.00 87 1014.0
20191014082038 57 250 5.0 0.0 0.00 0.00 0.00 87 1014.0
20191014080615 57 250 5.0 0.0 0.00 0.00 0.00 87 1014.0
20191014075330 56 220 5.0 0.0 0.00 0.00 0.00 87 1014.0
20191014074125 56 220 5.0 0.0 0.00 0.00 0.00 87 1014.0